Powrót do katalogu

STARLINK-36786

AktywnyŁącznośćVLEO
NORAD 67872·PAYLOAD·🇺🇸 United States

Wystrzelony Feb 20, 2026 z Vandenberg Space Force Base

Loading…

Następne Przeloty (najbliższe 24 godziny)

TLE

ŚwieżeSource: CelesTrak SupGP

Epoka: Sep 15, 2026, 04:06 UTC

1 67872C 26034Y   26258.17131944  .00020506  00000+0  65969-3 0  2586
2 67872  53.1593  42.7114 0001101  91.5435 352.0716 15.31679422    12

Śledź STARLINK-36786 w czasie rzeczywistym z AllMySat

Download on the App Store